This demonstration page uses our WeatherBlox Daily Observations layout. Learn more.

Left ArrowRight Arrow

Hourly Observations for June 26, 2017

Temp ( °F °C ) Dew Point ( °F °C ) Humidity (%) Winds ( mph kmh ) Pressure ( in mb ) Visibility ( mi km ) Precip ( " mm )
12:56 am 00:56 Clear 56 13.5 49 9.7 78 78 S 3 6 30.19 1022 10 16 0.00 0.00
1:56 am 01:56 Clear 55 12.9 50 9.9 82 82 SE 7 11 30.17 1022 10 16 0.00 0.00
2:56 am 02:56 Mostly Clear 55 12.7 50 9.9 83 83 Calm 30.17 1022 10 16 0.00 0.00
3:56 am 03:56 Cloudy 57 14.1 52 11.3 83 83 ENE 3 6 30.20 1023 10 16 0.00 0.00
4:56 am 04:56 Mostly Cloudy 57 14.1 53 11.4 84 84 Calm 30.19 1022 10 16 0.00 0.00
5:56 am 05:56 Cloudy 58 14.6 54 12.1 85 85 NNE 5 7 30.18 1022 10 16 0.00 0.00
6:09 am 06:09 Cloudy with Thunderstorms 59 15 54 12 82 82 N 9 15 30.21 1023 10 16 0.00 0.00
6:21 am 06:21 Cloudy with Thunderstorms 59 15 54 12 82 82 NNE 6 9 30.21 1023 10 16 0.00 0.00
6:25 am 06:25 Cloudy with Thunderstorms 59 15 54 12 82 82 ENE 8 13 30.21 1023 10 16 0.00 0.00
6:40 am 06:40 Cloudy 57 14 52 11 82 82 NE 7 11 30.21 1023 10 16 0.00 0.00
6:56 am 06:56 Cloudy with Thunderstorms 57 13.9 53 11.4 85 85 ENE 5 7 30.18 1022 10 16 0.01 0.25
6:59 am 06:59 Cloudy with Thunderstorms 57 14 54 12 88 88 NE 6 9 30.18 1022 9 14 0.00 0.00
7:12 am 07:12 Cloudy with Thunderstorms 57 14 54 12 88 88 NNW 3 6 30.21 1023 7 11 0.00 0.00
7:40 am 07:40 Cloudy with Thunderstorms 55 13 54 12 94 94 SE 3 6 30.21 1023 8 13 0.00 0.00
7:55 am 07:55 Cloudy with Heavy Rain 57 14 55 13 94 94 SSE 7 11 30.21 1023 4 6 0.00 0.00
7:56 am 07:56 Cloudy with Heavy Rain 57 13.8 55 12.5 92 92 SSE 9 15 30.21 1023 4 6 0.18 4.57
8:06 am 08:06 Cloudy with Heavy Rain 57 14 54 12 88 88 S 8 13 30.21 1023 6 10 0.00 0.00
8:17 am 08:17 Cloudy 57 14 54 12 88 88 SSE 9 15 30.21 1023 10 16 0.00 0.00
8:56 am 08:56 Mostly Sunny 58 14.5 55 12.7 89 89 SE 9 15 30.21 1023 10 16 0.04 1.02
9:56 am 09:56 Partly Cloudy 60 15.5 55 13 85 85 SE 6 9 30.20 1023 10 16 0.00 0.00
10:56 am 10:56 Mostly Cloudy 64 17.6 56 13.5 77 77 SE 6 9 30.20 1023 10 16 0.00 0.00
11:56 am 11:56 Mostly Sunny 66 19.1 57 14.1 73 73 Calm 30.18 1022 10 16 0.00 0.00
12:56 pm 12:56 Partly Cloudy 69 20.8 58 14.4 67 67 SE 5 7 30.16 1022 10 16 0.00 0.00
1:56 pm 13:56 Partly Cloudy 72 22.4 57 14 59 59 ENE 3 6 30.15 1021 9 14 0.00 0.00
2:56 pm 14:56 Sunny 74 23.2 56 13.1 53 53 S 5 7 30.13 1020 10 16 0.00 0.00
3:56 pm 15:56 Partly Cloudy 75 23.7 55 12.9 51 51 NE 7 11 30.11 1020 10 16 0.00 0.00
4:56 pm 16:56 Sunny 74 23.6 55 12.6 50 50 NNE 7 11 30.10 1019 10 16 0.00 0.00
5:56 pm 17:56 Partly Cloudy 76 24.7 50 10.2 40 40 NNE 3 6 30.10 1019 10 16 0.00 0.00
6:56 pm 18:56 Sunny 73 23 51 10.4 45 45 NNE 7 11 30.10 1019 10 16 0.00 0.00
7:56 pm 19:56 Sunny 72 22.3 53 11.7 51 51 NNE 8 13 30.09 1019 10 16 0.00 0.00
8:56 pm 20:56 Sunny 68 19.9 52 11.1 57 57 NE 5 7 30.10 1019 10 16 0.00 0.00
9:56 pm 21:56 Clear 65 18.1 51 10.7 62 62 NE 5 7 30.11 1020 10 16 0.00 0.00
10:56 pm 22:56 Clear 63 17.4 51 10.3 63 63 NE 5 7 30.14 1021 10 16 0.00 0.00
11:56 pm 23:56 Clear 60 15.8 52 11 73 73 E 5 7 30.14 1021 10 16 0.00 0.00

Powered by AerisWeather